Weather History for KABI - January, 2012

Change the Weather History Date:

Friday, January 13, 2012

  Actual Average Record
Temperature  
Mean Temperature 42 °F 45 °F  
Max Temperature 54 °F 57 °F 78 °F (1971)
Min Temperature 29 °F 33 °F 8 °F (1963)
Degree Days  
Heating Degree Days 23 20  
Month to date heating degree days 256 270  
Since 1 July heating degree days 1281 1315  
Cooling Degree Days 0 0  
Month to date cooling degree days 0 0  
Year to date cooling degree days 0 0  
Moisture  
Dew Point 21 °F    
Average Humidity 50    
Maximum Humidity 78    
Minimum Humidity 22    
Precipitation  
Precipitation 0.00 in 0.03 in 0.44 in (1982)
Month to date precipitation 1.33 0.38  
Year to date precipitation 1.33 0.38  
Sea Level Pressure  
Sea Level Pressure 30.24 in    
Wind  
Wind Speed 8 mph (SSW)    
Max Wind Speed 18 mph    
Max Gust Speed 23 mph    
Visibility 10 miles    
Events      
T = Trace of Precipitation, MM = Missing Value Source: NWS Daily Summary

Daily Weather History Graph

Daily Weather History Graph

Search for Another Location

Airport or City:

Trip Planner

Search our weather history database for the weather conditions in past years. The results will help you decide how hot, cold, wet, or windy it might be!

Date:

Astronomy

Jan. 13, 2012 Rise Set
Actual Time 7:40 AM CST 5:54 PM CST
Civil Twilight 7:14 AM CST 6:20 PM CST
Nautical Twilight 6:43 AM CST 6:50 PM CST
Astronomical Twilight 6:14 AM CST 7:20 PM CST
Moon 10:47 PM CST (1/13) 10:14 AM CST (1/13)
Length of Visible Light 11h 06m
Length of Day
10h 13m
Waning Gibbous, 78% of the Moon is Illuminated
Jan 13
Waning Gibbous
Jan 16
Last Quarter
Jan 23
New
Jan 30
First Quarter
Feb 7
Full

Hourly Weather History & Observations

Time (CST) Temp. Windchill Dew Point Humidity Pressure Visibility Wind Dir Wind Speed Gust Speed Precip Events Conditions
12:52 AM 30.9 °F 26.2 °F 21.9 °F 69% 30.23 in 10.0 mi SSW 4.6 mph - N/A   Clear
1:52 AM 32.0 °F 28.7 °F 21.9 °F 66% 30.23 in 10.0 mi South 3.5 mph - N/A   Clear
2:52 AM 30.0 °F 25.2 °F 21.9 °F 72% 30.24 in 10.0 mi SSW 4.6 mph - N/A   Clear
3:52 AM 30.0 °F 25.2 °F 23.0 °F 75% 30.25 in 10.0 mi SSW 4.6 mph - N/A   Clear
4:52 AM 28.9 °F 21.9 °F 21.9 °F 75% 30.25 in 10.0 mi South 6.9 mph - N/A   Clear
5:52 AM 28.9 °F 23.9 °F 23.0 °F 78% 30.26 in 10.0 mi SSW 4.6 mph - N/A   Clear
6:52 AM 30.9 °F 27.5 °F 24.1 °F 76% 30.26 in 10.0 mi South 3.5 mph - N/A   Clear
7:52 AM 30.9 °F 25.2 °F 21.9 °F 69% 30.28 in 10.0 mi SSW 5.8 mph - N/A   Clear
8:52 AM 33.1 °F 27.7 °F 25.0 °F 72% 30.29 in 10.0 mi SW 5.8 mph - N/A   Clear
9:52 AM 41.0 °F 35.8 °F 24.1 °F 51% 30.31 in 10.0 mi WSW 8.1 mph - N/A   Clear
10:52 AM 48.0 °F - 19.0 °F 32% 30.30 in 10.0 mi WSW 9.2 mph - N/A   Clear
11:52 AM 50.0 °F - 19.0 °F 29% 30.27 in 10.0 mi SW 9.2 mph - N/A   Clear
12:52 PM 52.0 °F - 17.1 °F 25% 30.22 in 10.0 mi SW 13.8 mph 17.3 mph N/A   Clear
1:52 PM 53.1 °F - 18.0 °F 25% 30.20 in 10.0 mi SSW 13.8 mph 20.7 mph N/A   Clear
2:52 PM 54.0 °F - 17.1 °F 23% 30.19 in 10.0 mi SW 13.8 mph 20.7 mph N/A   Clear
3:52 PM 54.0 °F - 16.0 °F 22% 30.19 in 10.0 mi SW 15.0 mph - N/A   Clear
4:52 PM 53.1 °F - 18.0 °F 25% 30.19 in 10.0 mi SW 11.5 mph - N/A   Clear
5:52 PM 48.9 °F - 19.0 °F 31% 30.20 in 10.0 mi SSW 6.9 mph - N/A   Clear
6:52 PM 45.0 °F 41.8 °F 19.9 °F 37% 30.23 in 10.0 mi SSW 5.8 mph - N/A   Clear
7:52 PM 41.0 °F 37.1 °F 21.0 °F 45% 30.25 in 10.0 mi South 5.8 mph - N/A   Clear
8:52 PM 37.0 °F 31.6 °F 21.9 °F 54% 30.26 in 10.0 mi SSW 6.9 mph - N/A   Clear
9:52 PM 36.0 °F 29.6 °F 23.0 °F 59% 30.25 in 10.0 mi South 8.1 mph - N/A   Clear
10:52 PM 37.0 °F 32.4 °F 23.0 °F 57% 30.25 in 10.0 mi South 5.8 mph - N/A   Clear
11:52 PM 39.0 °F 34.0 °F 24.1 °F 55% 30.24 in 10.0 mi SSW 6.9 mph - N/A   Clear